AUA15C LSZH-EDDL

Flight info

Callsign AUA15C
Flight time 1h 4m
Altitude 30000
Route VEBIT T10 TORPA DCT EDOPI DCT GIVOR DCT SORAL DCT IBERA DCT DIK/N0446F310 N853 ARCKY T853 NVO T857 BIKMU BIKMU1A
Aircraft A320/M-SDE3FGHIRWY/LB1

Departure

Time 2026-05-05 20:38
Airport Zürich Airport (LSZH)

Arrival

Time 2026-05-05 21:43
Airport Düsseldorf Airport (EDDL)
Time Latitude Longitude Altitude Speed Heading
2026-05-05 19:58 47.46184 8.55107 1397 ft 0 kts 155°
2026-05-05 20:25 47.46194 8.55103 1407 ft 2 kts 188°
2026-05-05 20:25 47.46205 8.55106 1405 ft 2 kts 164°
2026-05-05 20:26 47.46218 8.55096 1407 ft 2 kts 107°
2026-05-05 20:26 47.46222 8.55072 1405 ft 2 kts 107°
2026-05-05 20:26 47.46227 8.55047 1403 ft 2 kts 107°
2026-05-05 20:26 47.46232 8.55023 1402 ft 3 kts 107°
2026-05-05 20:27 47.46238 8.54996 1405 ft 3 kts 107°
2026-05-05 20:27 47.46243 8.54970 1402 ft 2 kts 107°
2026-05-05 20:27 47.46244 8.54968 1401 ft 0 kts 107°
2026-05-05 20:28 47.46243 8.54969 1401 ft 1 kts 107°
2026-05-05 20:28 47.46238 8.54997 1405 ft 0 kts 107°
2026-05-05 20:28 47.46237 8.54998 1405 ft 1 kts 107°
2026-05-05 20:28 47.46230 8.55033 1402 ft 0 kts 107°
2026-05-05 20:29 47.46230 8.55036 1402 ft 2 kts 107°
2026-05-05 20:29 47.46229 8.55039 1403 ft 0 kts 107°
2026-05-05 20:29 47.46226 8.55053 1401 ft 3 kts 106°
2026-05-05 20:30 47.46232 8.55076 1402 ft 2 kts 61°
2026-05-05 20:30 47.46263 8.55147 1401 ft 12 kts 69°
2026-05-05 20:30 47.46271 8.55262 1397 ft 10 kts 91°
2026-05-05 20:30 47.46265 8.55357 1403 ft 9 kts 96°
2026-05-05 20:31 47.46257 8.55459 1398 ft 12 kts 97°
2026-05-05 20:31 47.46248 8.55576 1400 ft 11 kts 97°
2026-05-05 20:31 47.46240 8.55672 1398 ft 8 kts 96°
2026-05-05 20:31 47.46235 8.55747 1401 ft 6 kts 96°
2026-05-05 20:32 47.46231 8.55805 1398 ft 5 kts 96°
2026-05-05 20:32 47.46225 8.55900 1398 ft 11 kts 96°
2026-05-05 20:32 47.46205 8.55996 1405 ft 8 kts 128°
2026-05-05 20:32 47.46174 8.56042 1400 ft 4 kts 137°
2026-05-05 20:33 47.46145 8.56082 1401 ft 8 kts 137°
2026-05-05 20:33 47.46112 8.56126 1402 ft 6 kts 137°
2026-05-05 20:33 47.46085 8.56162 1409 ft 5 kts 137°
2026-05-05 20:33 47.46075 8.56177 1401 ft 0 kts 137°
2026-05-05 20:34 47.46056 8.56202 1403 ft 8 kts 135°
2026-05-05 20:34 47.46039 8.56265 1401 ft 6 kts 89°
2026-05-05 20:35 47.46045 8.56292 1402 ft 0 kts 67°
2026-05-05 20:36 47.46045 8.56293 1402 ft 1 kts 67°
2026-05-05 20:36 47.46071 8.56333 1405 ft 8 kts 27°
2026-05-05 20:36 47.46150 8.56349 1400 ft 13 kts 359°
2026-05-05 20:37 47.46231 8.56306 1403 ft 12 kts 324°
2026-05-05 20:37 47.46271 8.56254 1401 ft 11 kts 317°
2026-05-05 20:37 47.46283 8.56238 1397 ft 0 kts 317°
2026-05-05 20:37 47.46342 8.56157 1398 ft 39 kts 317°
2026-05-05 20:38 47.46739 8.55618 1402 ft 112 kts 317°
2026-05-05 20:38 47.47456 8.54644 1407 ft 165 kts 317°
2026-05-05 20:38 47.48320 8.53526 2017 ft 164 kts 316°
2026-05-05 20:38 47.49189 8.52396 2705 ft 167 kts 315°
2026-05-05 20:39 47.50153 8.51390 3291 ft 175 kts 324°
2026-05-05 20:39 47.51240 8.50469 3839 ft 185 kts 324°
2026-05-05 20:39 47.52342 8.49440 4458 ft 187 kts 312°
2026-05-05 20:39 47.53122 8.47982 5110 ft 184 kts 290°
2026-05-05 20:40 47.53501 8.46099 5516 ft 201 kts 272°
2026-05-05 20:40 47.53412 8.43952 5960 ft 220 kts 253°
2026-05-05 20:40 47.52754 8.41786 6425 ft 240 kts 242°
2026-05-05 20:40 47.51820 8.39688 7158 ft 249 kts 227°
2026-05-05 20:41 47.50357 8.38260 7963 ft 261 kts 202°
2026-05-05 20:41 47.48542 8.37763 8828 ft 267 kts 191°
2026-05-05 20:41 47.46702 8.37287 9745 ft 270 kts 193°
2026-05-05 20:41 47.44852 8.36682 10520 ft 276 kts 195°
2026-05-05 20:42 47.42980 8.36025 10997 ft 278 kts 195°
2026-05-05 20:42 47.41094 8.35361 11848 ft 280 kts 196°
2026-05-05 20:42 47.39316 8.34246 12661 ft 280 kts 218°
2026-05-05 20:42 47.38047 8.32084 13493 ft 282 kts 240°
2026-05-05 20:43 47.37142 8.29500 14277 ft 285 kts 245°
2026-05-05 20:43 47.36646 8.26666 14967 ft 291 kts 259°
2026-05-05 20:43 47.36357 8.23705 15673 ft 295 kts 259°
2026-05-05 20:43 47.36069 8.20661 16356 ft 299 kts 259°
2026-05-05 20:44 47.35880 8.18651 16825 ft 301 kts 259°
2026-05-05 20:44 47.35592 8.15574 17520 ft 305 kts 259°
2026-05-05 20:44 47.35297 8.12461 18207 ft 308 kts 259°
2026-05-05 20:44 47.34996 8.09308 18814 ft 312 kts 259°
2026-05-05 20:45 47.34377 8.02907 20005 ft 319 kts 259°
2026-05-05 20:45 47.34063 7.99652 20592 ft 323 kts 259°
2026-05-05 20:45 47.33743 7.96360 21162 ft 326 kts 258°
2026-05-05 20:46 47.33416 7.93025 21737 ft 330 kts 258°
2026-05-05 20:46 47.33086 7.89664 22330 ft 333 kts 258°
2026-05-05 20:46 47.32754 7.86270 22893 ft 337 kts 258°
2026-05-05 20:46 47.32418 7.82840 23444 ft 340 kts 258°
2026-05-05 20:47 47.32075 7.79356 23821 ft 348 kts 258°
2026-05-05 20:47 47.31712 7.75748 23934 ft 363 kts 258°
2026-05-05 20:47 47.31333 7.72002 24058 ft 378 kts 258°
2026-05-05 20:47 47.30947 7.68096 24175 ft 392 kts 260°
2026-05-05 20:48 47.30838 7.64007 24304 ft 407 kts 270°
2026-05-05 20:48 47.31219 7.59826 24596 ft 417 kts 279°
2026-05-05 20:48 47.32039 7.55711 24992 ft 421 kts 284°
2026-05-05 20:48 47.32933 7.51643 25401 ft 423 kts 284°
2026-05-05 20:49 47.33832 7.47505 25852 ft 424 kts 284°
2026-05-05 20:49 47.34728 7.43357 26249 ft 426 kts 283°
2026-05-05 20:49 47.35621 7.39192 26637 ft 428 kts 283°
2026-05-05 20:49 47.36517 7.35003 27006 ft 430 kts 283°
2026-05-05 20:50 47.37420 7.30790 27391 ft 431 kts 283°
2026-05-05 20:50 47.38326 7.26565 27769 ft 433 kts 283°
2026-05-05 20:50 47.39238 7.22316 28111 ft 435 kts 283°
2026-05-05 20:50 47.40152 7.18055 28444 ft 437 kts 283°
2026-05-05 20:51 47.40973 7.13743 28756 ft 436 kts 278°
2026-05-05 20:51 47.41617 7.09364 29067 ft 437 kts 278°
2026-05-05 20:51 47.42260 7.04969 29366 ft 439 kts 278°
2026-05-05 20:51 47.42905 7.00556 29642 ft 441 kts 278°
2026-05-05 20:52 47.43554 6.96112 29861 ft 442 kts 278°
2026-05-05 20:52 47.44201 6.91713 29900 ft 435 kts 278°
2026-05-05 20:52 47.45517 6.83056 29896 ft 433 kts 283°
2026-05-05 20:53 47.46784 6.78991 29898 ft 441 kts 299°
2026-05-05 20:53 47.48818 6.75552 29898 ft 451 kts 316°
2026-05-05 20:53 47.51512 6.73102 29899 ft 461 kts 334°
2026-05-05 20:53 47.54638 6.71933 29899 ft 468 kts 350°
2026-05-05 20:54 47.61127 6.70826 29910 ft 470 kts 351°
2026-05-05 20:54 47.67590 6.69708 29889 ft 471 kts 351°
2026-05-05 20:55 47.74106 6.68566 29883 ft 471 kts 351°
2026-05-05 20:55 47.80623 6.67414 29879 ft 472 kts 351°
2026-05-05 20:56 47.87235 6.66247 29888 ft 486 kts 351°
2026-05-05 20:56 47.93926 6.65071 29901 ft 486 kts 352°
2026-05-05 20:57 47.97020 6.64527 30381 ft 475 kts 352°
2026-05-05 20:57 48.00303 6.63971 30337 ft 472 kts 352°
2026-05-05 20:57 48.03609 6.63417 30016 ft 487 kts 352°
2026-05-05 20:57 48.07018 6.62834 29831 ft 495 kts 352°
2026-05-05 20:58 48.13873 6.61626 29874 ft 498 kts 352°
2026-05-05 20:58 48.17241 6.61019 29868 ft 485 kts 352°
2026-05-05 20:58 48.20578 6.60413 29873 ft 482 kts 352°
2026-05-05 20:59 48.23898 6.59813 29863 ft 466 kts 352°
2026-05-05 20:59 48.27036 6.59243 29867 ft 459 kts 352°
2026-05-05 20:59 48.33441 6.58081 29870 ft 463 kts 352°
2026-05-05 21:00 48.39753 6.56945 29868 ft 462 kts 352°
2026-05-05 21:00 48.46060 6.55810 29862 ft 462 kts 352°
2026-05-05 21:01 48.52455 6.54654 29850 ft 463 kts 352°
2026-05-05 21:01 48.58850 6.53481 29843 ft 463 kts 352°
2026-05-05 21:02 48.65243 6.52296 29858 ft 463 kts 352°
2026-05-05 21:02 48.71632 6.51137 29844 ft 462 kts 353°
2026-05-05 21:03 48.78014 6.49971 29840 ft 462 kts 352°
2026-05-05 21:03 48.84398 6.48786 29837 ft 462 kts 352°
2026-05-05 21:04 48.90786 6.47595 29827 ft 462 kts 353°
2026-05-05 21:04 48.97166 6.46411 29835 ft 462 kts 353°
2026-05-05 21:05 49.03542 6.45224 29843 ft 461 kts 353°
2026-05-05 21:05 49.09914 6.44031 29835 ft 461 kts 352°
2026-05-05 21:06 49.16118 6.41828 29824 ft 461 kts 346°
2026-05-05 21:06 49.22325 6.39283 29821 ft 462 kts 346°
2026-05-05 21:07 49.28536 6.36720 29817 ft 462 kts 346°
2026-05-05 21:07 49.34748 6.34164 29820 ft 463 kts 346°
2026-05-05 21:08 49.40979 6.31595 29814 ft 464 kts 346°
2026-05-05 21:08 49.47207 6.29013 29817 ft 464 kts 346°
2026-05-05 21:09 49.53450 6.26416 29830 ft 465 kts 346°
2026-05-05 21:09 49.59700 6.23852 29828 ft 464 kts 346°
2026-05-05 21:10 49.65879 6.21344 29852 ft 465 kts 346°
2026-05-05 21:10 49.72179 6.18758 29875 ft 468 kts 346°
2026-05-05 21:11 49.78447 6.16165 29865 ft 465 kts 346°
2026-05-05 21:11 49.84696 6.13645 29857 ft 462 kts 350°
2026-05-05 21:12 49.91010 6.12991 29855 ft 457 kts
2026-05-05 21:12 49.97352 6.13039 29471 ft 455 kts
2026-05-05 21:13 50.00518 6.13059 29180 ft 456 kts
2026-05-05 21:13 50.03688 6.13079 28885 ft 456 kts
2026-05-05 21:13 50.06862 6.13094 28605 ft 456 kts
2026-05-05 21:13 50.10045 6.13110 28331 ft 457 kts
2026-05-05 21:14 50.13228 6.13129 28056 ft 458 kts
2026-05-05 21:14 50.16413 6.13149 27774 ft 459 kts
2026-05-05 21:14 50.19609 6.13171 27515 ft 459 kts
2026-05-05 21:14 50.22805 6.13190 27248 ft 459 kts
2026-05-05 21:15 50.25983 6.13363 26978 ft 456 kts
2026-05-05 21:15 50.29086 6.14257 26717 ft 453 kts 17°
2026-05-05 21:15 50.32046 6.15891 26460 ft 449 kts 26°
2026-05-05 21:15 50.34782 6.18177 25955 ft 442 kts 34°
2026-05-05 21:16 50.37341 6.20788 25243 ft 438 kts 35°
2026-05-05 21:16 50.39876 6.23401 24565 ft 434 kts 35°
2026-05-05 21:16 50.42386 6.26002 23903 ft 431 kts 35°
2026-05-05 21:16 50.44890 6.28597 23204 ft 429 kts 34°
2026-05-05 21:17 50.47368 6.31159 22516 ft 425 kts 34°
2026-05-05 21:17 50.49826 6.33686 21903 ft 420 kts 33°
2026-05-05 21:17 50.52300 6.36103 21322 ft 416 kts 32°
2026-05-05 21:17 50.54780 6.38398 20772 ft 412 kts 30°
2026-05-05 21:18 50.57251 6.40617 20220 ft 408 kts 30°
2026-05-05 21:18 50.59710 6.42810 19687 ft 404 kts 30°
2026-05-05 21:18 50.62151 6.45002 19044 ft 404 kts 30°
2026-05-05 21:18 50.64581 6.47212 18440 ft 404 kts 30°
2026-05-05 21:19 50.66974 6.49410 17879 ft 401 kts 30°
2026-05-05 21:19 50.69369 6.51628 17306 ft 398 kts 30°
2026-05-05 21:19 50.71742 6.53839 16740 ft 394 kts 31°
2026-05-05 21:19 50.74123 6.56073 16161 ft 391 kts 31°
2026-05-05 21:20 50.76420 6.58228 15591 ft 389 kts 31°
2026-05-05 21:20 50.78741 6.60408 15018 ft 387 kts 31°
2026-05-05 21:20 50.81042 6.62579 14498 ft 383 kts 31°
2026-05-05 21:20 50.83328 6.64737 13953 ft 381 kts 31°
2026-05-05 21:21 50.85590 6.66881 13415 ft 378 kts 31°
2026-05-05 21:21 50.87844 6.69023 12804 ft 375 kts 31°
2026-05-05 21:21 50.90061 6.71132 12241 ft 371 kts 31°
2026-05-05 21:21 50.92267 6.73230 11671 ft 367 kts 31°
2026-05-05 21:22 50.94445 6.75304 11093 ft 364 kts 31°
2026-05-05 21:22 50.96599 6.77360 10572 ft 358 kts 31°
2026-05-05 21:22 50.98713 6.79380 10155 ft 351 kts 31°
2026-05-05 21:22 51.00755 6.81334 10025 ft 334 kts 31°
2026-05-05 21:23 51.02702 6.83200 9916 ft 320 kts 31°
2026-05-05 21:23 51.04562 6.84981 9801 ft 307 kts 31°
2026-05-05 21:23 51.06361 6.86709 9669 ft 295 kts 31°
2026-05-05 21:23 51.08101 6.88381 9355 ft 290 kts 31°
2026-05-05 21:24 51.09827 6.90039 8957 ft 288 kts 31°
2026-05-05 21:24 51.11535 6.91686 8569 ft 286 kts 31°
2026-05-05 21:24 51.13231 6.93323 8178 ft 284 kts 31°
2026-05-05 21:24 51.14905 6.94954 7823 ft 280 kts 31°
2026-05-05 21:25 51.16563 6.96574 7422 ft 279 kts 31°
2026-05-05 21:25 51.18209 6.98184 7026 ft 277 kts 31°
2026-05-05 21:25 51.19842 6.99782 6625 ft 275 kts 31°
2026-05-05 21:25 51.21473 7.01377 6212 ft 274 kts 31°
2026-05-05 21:26 51.23092 7.02957 5786 ft 272 kts 31°
2026-05-05 21:26 51.24703 7.04521 5368 ft 270 kts 31°
2026-05-05 21:26 51.26304 7.06069 4951 ft 268 kts 31°
2026-05-05 21:26 51.27899 7.07601 4527 ft 267 kts 32°
2026-05-05 21:27 51.29466 7.09088 4082 ft 265 kts 32°
2026-05-05 21:27 51.31044 7.10577 3657 ft 263 kts 32°
2026-05-05 21:27 51.32704 7.11737 3281 ft 262 kts 12°
2026-05-05 21:27 51.34505 7.11549 2992 ft 262 kts 341°
2026-05-05 21:28 51.36089 7.10062 2984 ft 266 kts 326°
2026-05-05 21:28 51.37517 7.08293 2996 ft 254 kts 323°
2026-05-05 21:28 51.38855 7.06576 2990 ft 241 kts 323°
2026-05-05 21:28 51.40153 7.04897 3002 ft 238 kts 322°
2026-05-05 21:29 51.41146 7.02794 3005 ft 241 kts 291°
2026-05-05 21:29 51.41357 7.00150 3005 ft 242 kts 267°
2026-05-05 21:29 51.40893 6.97596 3002 ft 241 kts 239°
2026-05-05 21:29 51.39941 6.95395 3001 ft 241 kts 232°
2026-05-05 21:30 51.38890 6.93304 2997 ft 240 kts 224°
2026-05-05 21:30 51.37662 6.91523 3014 ft 235 kts 216°
2026-05-05 21:30 51.36358 6.89976 2992 ft 233 kts 213°
2026-05-05 21:30 51.35094 6.88507 3033 ft 220 kts 214°
2026-05-05 21:31 51.33908 6.86999 2999 ft 218 kts 226°
2026-05-05 21:31 51.32981 6.85117 3002 ft 208 kts 231°
2026-05-05 21:31 51.32157 6.83395 2975 ft 184 kts 231°
2026-05-05 21:31 51.31421 6.81858 2964 ft 167 kts 230°
2026-05-05 21:32 51.30618 6.80593 2972 ft 160 kts 202°
2026-05-05 21:32 51.29595 6.79954 2977 ft 157 kts 198°
2026-05-05 21:32 51.28439 6.79750 3005 ft 189 kts 164°
2026-05-05 21:32 51.27245 6.80959 2962 ft 216 kts 126°
2026-05-05 21:33 51.26668 6.83167 2977 ft 222 kts 94°
2026-05-05 21:33 51.26795 6.85612 2982 ft 221 kts 82°
2026-05-05 21:33 51.26983 6.88039 2979 ft 219 kts 83°
2026-05-05 21:33 51.27169 6.90457 2978 ft 220 kts 83°
2026-05-05 21:34 51.27359 6.92879 2979 ft 220 kts 83°
2026-05-05 21:34 51.27558 6.95310 2980 ft 221 kts 81°
2026-05-05 21:34 51.28158 6.97548 2984 ft 221 kts 57°
2026-05-05 21:34 51.29065 6.99534 2986 ft 222 kts 54°
2026-05-05 21:35 51.30010 7.01490 2982 ft 223 kts 53°
2026-05-05 21:35 51.30642 7.02789 2980 ft 223 kts 53°
2026-05-05 21:35 51.31592 7.04742 2987 ft 222 kts 54°
2026-05-05 21:35 51.32541 7.06678 2995 ft 221 kts 53°
2026-05-05 21:36 51.33495 7.08636 2996 ft 223 kts 54°
2026-05-05 21:36 51.34772 7.11210 2995 ft 223 kts 50°
2026-05-05 21:36 51.36003 7.12705 2986 ft 226 kts 24°
2026-05-05 21:36 51.37544 7.13082 2993 ft 228 kts 355°
2026-05-05 21:37 51.39027 7.12171 2990 ft 234 kts 325°
2026-05-05 21:37 51.39787 7.10901 2991 ft 237 kts 304°
2026-05-05 21:37 51.40292 7.08392 2999 ft 240 kts 272°
2026-05-05 21:37 51.39980 7.05811 2993 ft 231 kts 251°
2026-05-05 21:38 51.39519 7.03481 3019 ft 214 kts 252°
2026-05-05 21:38 51.39166 7.01239 3009 ft 205 kts 261°
2026-05-05 21:38 51.38954 6.99002 2997 ft 202 kts 257°
2026-05-05 21:38 51.38318 6.97051 2978 ft 189 kts 230°
2026-05-05 21:39 51.37559 6.95442 2815 ft 177 kts 231°
2026-05-05 21:39 51.36843 6.93920 2635 ft 168 kts 231°
2026-05-05 21:39 51.36150 6.92451 2416 ft 163 kts 231°
2026-05-05 21:39 51.35470 6.91014 2187 ft 162 kts 230°
2026-05-05 21:40 51.34792 6.89584 1970 ft 162 kts 232°
2026-05-05 21:40 51.34111 6.88145 1762 ft 161 kts 233°
2026-05-05 21:40 51.33431 6.86710 1529 ft 162 kts 233°
2026-05-05 21:40 51.32752 6.85280 1287 ft 160 kts 234°
2026-05-05 21:41 51.32084 6.83872 1064 ft 159 kts 234°
2026-05-05 21:41 51.31426 6.82487 837 ft 153 kts 235°
2026-05-05 21:41 51.30793 6.81155 630 ft 150 kts 234°
2026-05-05 21:41 51.30171 6.79848 431 ft 147 kts 234°
2026-05-05 21:42 51.29554 6.78540 250 ft 146 kts 234°
2026-05-05 21:42 51.28954 6.77294 132 ft 132 kts 235°
2026-05-05 21:42 51.28494 6.76309 123 ft 86 kts 232°
2026-05-05 21:42 51.28223 6.75744 123 ft 55 kts 231°
2026-05-05 21:43 51.28026 6.75331 115 ft 41 kts 233°
2026-05-05 21:43 51.27964 6.75197 117 ft 0 kts 233°